Flag for U.S.A. Weather past 2 weeks in Freehold, New Jersey, U.S.A.

Now
73 °F

Sunny.


Feels Like: 77 °F
Forecast: 51 / 78 °F
Wind: 6 mph from West

Location: Belmar-Farmdale

Current Time: Apr 18, 2015 at 12:46:35 PM

Latest Report: Apr 18, 2015 at 12:15 PM


Visibility: 10 mi

Pressure: 29.98 "Hg

Humidity: 33%

Dew point: 43 °F

Location of FreeholdLocation

Historic Weather in Freehold — Graph

°F

Freehold temperature yesterday

Maximum temperature yesterday: 72 °F (at 5:15 PM)
Minimum temperature yesterday: 54 °F (at 4:35 AM)
Average temperature yesterday: 61 °F

Past Weeks' High & Low Weather Summary

 TemperatureHumidityPressure
High73 °F (Apr 6, 3:55 PM)88% (Apr 3, 7:55 PM)30.49 "Hg (Apr 3, 7:55 PM)
Low36 °F (Apr 6, 6:55 AM)15% (Apr 15, 5:55 PM)29.49 "Hg (Apr 4, 3:55 AM)
Average53 °F57%30.14 "Hg
* Reported Apr 3 11:15 AM — Apr 18 11:55 AM, Freehold, Weather by CustomWeather, © 2015

Note: Actual official high and low records may vary slightly from our data, if they occured in-between our weather recording intervals... More about our weather records

Advertising

Freehold weather history for previous 24 hours

 ConditionsComfort  
Time TempWeatherWind HumidityBarometerVisibility
11:55 AM
Sat, Apr 18
73 °FSunny.10 mph36%29.98 "Hg10 mi
11:35 AM73 °FSunny.12 mph36%29.99 "Hg10 mi
11:15 AM72 °FSunny.8 mph41%30.00 "Hg10 mi
10:55 AM72 °FSunny.12 mph38%30.01 "Hg10 mi
10:35 AM70 °FSunny.6 mph40%30.01 "Hg10 mi
10:15 AM70 °FSunny.8 mph43%30.01 "Hg10 mi
9:55 AM66 °FSunny.No wind49%30.01 "Hg10 mi
9:35 AM64 °FSunny.No wind52%30.01 "Hg10 mi
9:15 AM64 °FSunny.No wind56%30.01 "Hg10 mi
8:55 AM63 °FSunny.3 mph59%30.01 "Hg10 mi
8:35 AM61 °FSunny.3 mph63%30.01 "Hg10 mi
8:15 AM61 °FSunny.3 mph63%30.02 "Hg10 mi
7:55 AM57 °FSunny.3 mph72%30.01 "Hg10 mi
7:35 AM55 °FSunny.No wind72%30.00 "Hg10 mi
7:15 AM54 °FSunny.5 mph77%30.00 "Hg8 mi
6:55 AM54 °FClear.5 mph77%29.99 "Hg8 mi
6:35 AM52 °FClear.3 mph82%29.98 "Hg9 mi
6:15 AM54 °FPassing clouds.3 mph72%29.97 "Hg10 mi
5:55 AM54 °FPassing clouds.3 mph72%29.97 "Hg10 mi
5:35 AM55 °FOvercast.5 mph72%29.97 "Hg10 mi
5:15 AM55 °FOvercast.3 mph72%29.97 "Hg10 mi
4:55 AM57 °FOvercast.5 mph67%29.97 "Hg10 mi
4:35 AM57 °FOvercast.5 mph67%29.97 "Hg10 mi
4:15 AM57 °FPassing clouds.3 mph67%29.97 "Hg10 mi
3:55 AM57 °FPassing clouds.3 mph72%29.97 "Hg10 mi
3:35 AM55 °FClear.3 mph77%29.97 "Hg10 mi
3:15 AM55 °FClear.3 mph72%29.97 "Hg10 mi
2:55 AM57 °FClear.3 mph72%29.97 "Hg10 mi
2:35 AM55 °FClear.3 mph77%29.97 "Hg10 mi
2:15 AM57 °FClear.3 mph72%29.97 "Hg10 mi
1:55 AM59 °FClear.5 mph68%29.97 "Hg10 mi
1:15 AM59 °FClear.7 mph72%29.97 "Hg10 mi
12:55 AM57 °FClear.6 mph77%29.98 "Hg10 mi
12:35 AM61 °FClear.3 mph72%29.97 "Hg10 mi
12:15 AM61 °FClear.6 mph72%29.97 "Hg10 mi
11:55 PM
Fri, Apr 17
61 °FClear.5 mph72%29.97 "Hg10 mi
11:15 PM63 °FClear.5 mph68%29.97 "Hg10 mi
10:55 PM63 °FClear.No wind68%29.97 "Hg10 mi
10:35 PM63 °FClear.3 mph73%29.97 "Hg10 mi
10:15 PM64 °FClear.7 mph68%29.96 "Hg10 mi
9:55 PM64 °FPassing clouds.6 mph68%29.96 "Hg10 mi
9:35 PM64 °FPassing clouds.5 mph68%29.96 "Hg10 mi
9:15 PM64 °FPassing clouds.3 mph68%29.96 "Hg10 mi
8:55 PM66 °FPassing clouds.3 mph64%29.96 "Hg10 mi
8:35 PM66 °FPartly sunny.3 mph64%29.95 "Hg10 mi
8:15 PM66 °FScattered clouds.5 mph64%29.94 "Hg10 mi
7:55 PM68 °FSunny.6 mph60%29.94 "Hg10 mi
7:35 PM68 °FPassing clouds.3 mph60%29.93 "Hg10 mi
7:15 PM70 °FScattered clouds.5 mph57%29.93 "Hg10 mi
6:55 PM70 °FPassing clouds.6 mph57%29.93 "Hg10 mi
6:35 PM72 °FScattered clouds.9 mph57%29.93 "Hg10 mi
6:15 PM70 °FOvercast.6 mph57%29.92 "Hg10 mi
5:55 PM70 °FBroken clouds.9 mph57%29.92 "Hg10 mi
5:35 PM70 °FMore clouds than sun.10 mph60%29.93 "Hg10 mi
5:15 PM72 °FMore clouds than sun.12 mph57%29.93 "Hg10 mi
4:55 PM70 °FPartly sunny.10 mph60%29.94 "Hg10 mi
4:35 PM70 °FPartly sunny.9 mph60%29.95 "Hg10 mi
4:15 PM70 °FPartly sunny.10 mph60%29.95 "Hg10 mi
3:55 PM70 °FMostly cloudy.8 mph60%29.96 "Hg10 mi
3:35 PM70 °FPartly sunny.13 mph60%29.96 "Hg10 mi
3:15 PM68 °FPartly sunny.13 mph64%29.96 "Hg10 mi
2:55 PM66 °FOvercast.14 mph64%29.98 "Hg10 mi
2:35 PM66 °FMostly cloudy.10 mph68%29.98 "Hg10 mi
2:15 PM66 °FOvercast.12 mph68%29.99 "Hg10 mi
1:55 PM64 °FOvercast.10 mph68%30.00 "Hg10 mi
1:35 PM64 °FOvercast.14 mph68%30.01 "Hg10 mi
1:15 PM63 °FOvercast.12 mph73%30.01 "Hg10 mi
12:55 PM63 °FOvercast.14 mph73%30.02 "Hg10 mi
12:35 PM61 °FOvercast.12 mph77%30.03 "Hg10 mi
12:15 PM61 °FOvercast.13 mph77%30.03 "Hg10 mi
Weather by CustomWeather, © 2015

See weather overviewHow to use our weather pages